Powrót do katalogu

TIANMU-1 10

AktywnyPogodaSSO
NORAD 57402·PAYLOAD·🇨🇳 China

Wystrzelony Jul 20, 2023 z Jiuquan Satellite Launch Center

Loading…

Następne Przeloty (najbliższe 24 godziny)

TLE

ŚwieżeSource: Space-Track

Epoka: Sep 14, 2026, 22:16 UTC

1 57402U 23101D   26257.92794428  .00005531  00000-0  18868-3 0  9990
2 57402  97.2531 306.8212 0005085 156.2060 203.9417 15.30734950175362

Śledź TIANMU-1 10 w czasie rzeczywistym z AllMySat

Download on the App Store